User: anonymous   Login
Location: Drayton Valley
(53.2170°N, 114.9830°W)
Time: 16:59:38
(UTC-06:00)
Language:

Cosmos 1302 Rocket - Orbit

View from above orbital plane
View from above orbital plane
View from above satellite
View from above satellite

Ground track
Ground track

The orbit data is extracted from the following two-line orbital elements,

1 12792U 81084B   16181.84187669 +.00000046 +00000-0 +24214-4 0  9995
2 12792 074.0306 323.9842 0014183 331.7539 134.7112 14.37422926824151
Epoch (UTC): 29 June 2016 20:12:18
Eccentricity: 0.0014183
inclination: 74.0306°
perigee height: 757 km
apogee height: 777 km
right ascension of ascending node: 323.9842°
argument of perigee: 331.7539°
revolutions per day: 14.37422926
mean anomaly at epoch: 134.7112°
orbit number at epoch: 82415

The dashed part of the orbit path shows where the satellite is in the earth's shadow,  

DLR